Погода в Дивон-ле-Бен

Франция     46°21′05″N   6°07′49″E
темп.,
°C
ветер,
м/с
пор.,
м/с
влажн.,
%
обл.,
%
осадки,
мм/ч
давл.,
гПа
погр.,
м
14 августа, вс
вс1423:00+18св12527 0.0 101265
02:00+16вюв125885 0.0 101351
05:00+16св1163100 0.0 101062
08:00+17ю0159100 0.0 101093
11:00+22юз5556100 0.0 1011818
14:00+18ююз6884100 0.6 1012598
17:00+23юз34585 0.3 1009802
20:00+23юз465686 0.5 1008574
15 августа, пн
пн1523:00+16ю22886 0.8 101054
02:00+15ююз22890 0.9 100974
05:00+14ююз229199 0.4 100968
08:00+15ююз2390100 0.9 1010124
11:00+20юз3570100 0.4 1009555
14:00+24зюз353944 0.4 10081421
17:00+27зюз57275 0.0 10062313
20:00+23сз224423 0.0 1007151
16 августа, вт
вт1623:00+16вюв11644 0.0 101023
02:00+15в11715 0.0 101051
05:00+13ююв11764 0.0 101031
08:00+16юв00665 0.0 101097
11:00+23с21434 0.0 1010555
14:00+29сз24294 0.0 10081654
17:00+31сз14235 0.0 10062361
20:00+25ююз3541100 0.0 1007111
17 августа, ср
ср1723:00+18ю3475100 0.9 101078
02:00+16ююз2293100 2.9 101393
05:00+16юз1193100 0.1 101365
08:00+16вюв2293100 0.3 1012136
11:00+21ссв2272100 0.0 1012652
14:00+26с324620 0.1 10101232
17:00+27ссв5339100 0.0 10081538
20:00+15ссз3493100 10.6 1014283
18 августа, чт
чт1823:00+14юз0193100 1.6 101659
02:00+15юз3593100 2.1 1014161
05:00+14юз1291100 0.0 101380
08:00+15ю119056 0.0 1014109
11:00+20зсз11639 0.0 1014884
14:00+24с22472 0.2 10121502
17:00+24сз324924 0.8 10111250
20:00+18зсз127555 3.6 101268